Regional Weather Roundup
Issued by NWS

Home | Current Version | Previous Version | Text Only | Print | Product List | Glossary Off
Versions: 1 2 3 4 5 6 7 8 9 10 11 12 13 14 15 16 17 18 19 20 21 22 23 24 25 26 27 28 29 30 31 32 33 34 35 36 37 38 39 40 41 42 43 44 45 46 47 48 49 50

000
ASUS45 KCYS 270010
RWRWY

WYOMING REGIONAL WEATHER ROUNDUP
NATIONAL WEATHER SERVICE CHEYENNE WY
600 PM MDT MON SEP 26 2016

NOTE:  "FAIR" INDICATES FEW OR NO CLOUDS BELOW 12,000 FEET
WITH NO SIGNIFICANT WEATHER AND/OR OBSTRUCTIONS TO VISIBILITY.

WYZ001-270100-
YELLOWSTONE NATIONAL PARK

CITY           SKY/WX    TMP DP  RH WIND       PRES   REMARKS
LK YELLOWSTONE   N/A     58  39  49 CALM      30.47F
6HR MIN TEMP:  48; 6HR MAX TEMP:  61;

W YELLOWSTONE  NOT AVBL

$$
WYZ002>013-054>058-071-098>099-270100-
NORTHERN WYOMING

CITY           SKY/WX    TMP DP  RH WIND       PRES   REMARKS
JACKSON        SUNNY     70  37  30 CALM      30.37F
CODY           FAIR      66  46  48 SE8       30.30F
GREYBULL       FAIR      69  43  38 CALM      30.25F
6HR MIN TEMP:  60; 6HR MAX TEMP:  70;

WORLAND        FAIR      70  45  40 N3        30.26F
6HR MIN TEMP:  62; 6HR MAX TEMP:  71;

SHERIDAN       FAIR      69  47  45 CALM      30.25F
6HR MIN TEMP:  68; 6HR MAX TEMP:  73;

BUFFALO        FAIR      65  43  44 S3        30.30F
6HR MIN TEMP:  64; 6HR MAX TEMP:  70;

GILLETTE       FAIR      65  45  48 NW9       30.26F
6HR MIN TEMP:  64; 6HR MAX TEMP:  69;

HULETT         FAIR      64  41  42 W3        30.26F
NEWCASTLE      FAIR      64  37  36 NW10      30.27S

$$
WYZ014>020-022>026-101>103-270100-
CENTRAL WYOMING

CITY           SKY/WX    TMP DP  RH WIND       PRES   REMARKS
BIG PINEY      FAIR      70  35  27 CALM      30.39F
6HR MIN TEMP:  60; 6HR MAX TEMP:  72;

PINEDALE       FAIR      68  34  28 CALM      30.40S
DUBOIS         FAIR      61  39  44 SE13      30.40R
LANDER         FAIR      67  44  43 E3        30.32F
6HR MIN TEMP:  61; 6HR MAX TEMP:  71;

RIVERTON       FAIR      66  43  43 NE5       30.34F
6HR MIN TEMP:  58; 6HR MAX TEMP:  69;

CASPER         FAIR      69  41  36 NW10      30.30F
6HR MIN TEMP:  64; 6HR MAX TEMP:  72;

DOUGLAS        FAIR      70  40  33 NW6       30.29S
6HR MIN TEMP:  66; 6HR MAX TEMP:  74;


$$
WYZ021-027>030-104>119-270100-
SOUTHERN WYOMING

CITY           SKY/WX    TMP DP  RH WIND       PRES   REMARKS
EVANSTON       FAIR      68  34  28 NW8       30.40F
6HR MIN TEMP:  60; 6HR MAX TEMP:  69;

FORT BRIDGER   FAIR      70  34  26 NW6       30.42
ROCK SPRINGS   FAIR      65  37  35 E5        30.39F
6HR MIN TEMP:  58; 6HR MAX TEMP:  68;

DIXON          FAIR      68  33  27 W6        30.41S
RAWLINS        FAIR      66  37  34 NW8       30.39F
6HR MIN TEMP:  60; 6HR MAX TEMP:  68;

SARATOGA       FAIR      64  34  32 N8        30.41S
LARAMIE        FAIR      65  35  33 N16       30.39R
6HR MIN TEMP:  59; 6HR MAX TEMP:  70;

CHEYENNE       FAIR      70  34  26 N14       30.33R
6HR MIN TEMP:  67; 6HR MAX TEMP:  74;

TORRINGTON     FAIR      72  39  30 N9        30.24S
6HR MIN TEMP:  69; 6HR MAX TEMP:  76;

PINE BLUFFS    FAIR      68  34  28 N7        30.30S

$$



USA.gov is the U.S. government's official web portal to all federal, state and local government web resources and services.